Weather History for KAEG - May, 2013

Change the Weather History Date:

Sunday, May 26, 2013

  Actual Average Record
Temperature  
Mean Temperature 68 °F -  
Max Temperature 86 °F - - ()
Min Temperature 50 °F - - ()
Cooling Degree Days 3    
Growing Degree Days 18 (Base 50)    
Moisture  
Dew Point 6 °F    
Average Humidity 11    
Maximum Humidity 18    
Minimum Humidity 4    
Precipitation  
Precipitation 0.00 in - - ()
Sea Level Pressure  
Sea Level Pressure 30.09 in    
Wind  
Wind Speed 6 mph (West)    
Max Wind Speed 21 mph    
Max Gust Speed 24 mph    
Visibility 10 miles    
Events      
T = Trace of Precipitation, MM = Missing Value Source: NWS Daily Summary

Daily Weather History Graph

Daily Weather History Graph

Search for Another Location

Airport or City:

Trip Planner

Search our weather history database for the weather conditions in past years. The results will help you decide how hot, cold, wet, or windy it might be!

Date:

Astronomy

May. 26, 2013 Rise Set
Actual Time 5:56 AM MDT 8:12 PM MDT
Civil Twilight 5:27 AM MDT 8:41 PM MDT
Nautical Twilight 4:51 AM MDT 9:17 PM MDT
Astronomical Twilight 4:13 AM MDT 9:55 PM MDT
Moon 10:03 PM MDT (5/26) 7:28 AM MDT (5/26)
Length of Visible Light 15h 14m
Length of Day
14h 16m
Waning Gibbous, 96% of the Moon is Illuminated
May 26
Waning Gibbous
May 31
Last Quarter
Jun 8
New
Jun 16
First Quarter
Jun 23
Full

Hourly Weather History & Observations

Time (MDT) Temp. Dew Point Humidity Pressure Visibility Wind Dir Wind Speed Gust Speed Precip Events Conditions
12:15 AM 66.2 °F 14.0 °F 13% 30.08 in 10.0 mi Calm Calm - N/A   Clear
12:35 AM 60.8 °F 8.6 °F 13% 30.09 in 10.0 mi Calm Calm - N/A   Clear
12:55 AM 62.6 °F 10.4 °F 13% 30.09 in 10.0 mi Calm Calm - N/A   Clear
1:15 AM 57.2 °F 8.6 °F 14% 30.10 in 10.0 mi WSW 3.5 mph - N/A   Clear
1:35 AM 55.4 °F 8.6 °F 15% 30.10 in 10.0 mi WSW 3.5 mph - N/A   Clear
1:55 AM 55.4 °F 8.6 °F 15% 30.10 in 10.0 mi WSW 5.8 mph - N/A   Clear
2:15 AM 55.4 °F 6.8 °F 14% 30.10 in 10.0 mi West 9.2 mph - N/A   Clear
2:35 AM 57.2 °F 6.8 °F 13% 30.10 in 10.0 mi West 9.2 mph - N/A   Clear
2:55 AM 57.2 °F 8.6 °F 14% 30.10 in 10.0 mi West 11.5 mph - N/A   Clear
3:15 AM 57.2 °F 8.6 °F 14% 30.11 in 10.0 mi West 8.1 mph - N/A   Clear
3:35 AM 53.6 °F 8.6 °F 16% 30.12 in 10.0 mi West 10.4 mph - N/A   Clear
3:55 AM 53.6 °F 8.6 °F 16% 30.13 in 10.0 mi WSW 6.9 mph - N/A   Clear
4:15 AM 53.6 °F 8.6 °F 16% 30.13 in 10.0 mi WSW 3.5 mph - N/A   Clear
4:35 AM 51.8 °F 8.6 °F 18% 30.13 in 10.0 mi NW 5.8 mph - N/A   Clear
4:55 AM 53.6 °F 8.6 °F 16% 30.13 in 10.0 mi Calm Calm - N/A   Clear
5:15 AM 50.0 °F 6.8 °F 17% 30.13 in 10.0 mi NW 5.8 mph - N/A   Clear
5:35 AM 51.8 °F 6.8 °F 16% 30.13 in 10.0 mi NNW 5.8 mph - N/A   Clear
5:50 AM 51.8 °F 6.8 °F 16% 30.13 in 10.0 mi NW 5.8 mph - N/A   Scattered Clouds
6:50 AM 53.6 °F 6.8 °F 15% 30.15 in 10.0 mi WSW 4.6 mph - N/A   Scattered Clouds
7:50 AM 66.2 °F 8.6 °F 11% 30.15 in 10.0 mi Variable 5.8 mph - N/A   Scattered Clouds
8:50 AM 68.0 °F 8.6 °F 10% 30.17 in 10.0 mi Calm Calm - N/A   Mostly Cloudy
9:50 AM 71.6 °F 10.4 °F 9% 30.16 in 10.0 mi Calm Calm - N/A   Mostly Cloudy
10:50 AM 75.2 °F 8.6 °F 8% 30.15 in 10.0 mi WSW 6.9 mph - N/A   Scattered Clouds
11:50 AM 77.0 °F 8.6 °F 7% 30.15 in 10.0 mi SW 17.3 mph - N/A   Scattered Clouds
12:50 PM 77.0 °F 6.8 °F 7% 30.12 in 10.0 mi SSW 11.5 mph - N/A   Scattered Clouds
1:50 PM 80.6 °F 5.0 °F 6% 30.09 in 10.0 mi SW 15.0 mph 17.3 mph N/A   Mostly Cloudy
2:50 PM 80.6 °F 1.4 °F 5% 30.06 in 10.0 mi West 6.9 mph 24.2 mph N/A   Mostly Cloudy
3:50 PM 82.4 °F 8.6 °F 6% 30.03 in 10.0 mi SSE 13.8 mph 19.6 mph N/A   Mostly Cloudy
4:50 PM 84.2 °F 8.6 °F 6% 30.01 in 10.0 mi SE 10.4 mph 17.3 mph N/A   Mostly Cloudy
5:50 PM 86.0 °F 3.2 °F 4% 29.99 in 10.0 mi West 20.7 mph 24.2 mph N/A   Scattered Clouds
6:50 PM 84.2 °F 1.4 °F 4% 29.98 in 10.0 mi WSW 13.8 mph - N/A   Scattered Clouds
7:50 PM 80.6 °F -0.4 °F 4% 29.99 in 10.0 mi WSW 12.7 mph - N/A   Scattered Clouds
8:50 PM 73.4 °F -2.2 °F 5% 30.01 in 10.0 mi West 12.7 mph - N/A   Clear
9:50 PM 66.2 °F -2.2 °F 6% 30.03 in 10.0 mi West 10.4 mph - N/A   Clear
10:15 PM 66.2 °F -2.2 °F 6% 30.04 in 10.0 mi West 11.5 mph - N/A   Clear
10:35 PM 66.2 °F -0.4 °F 7% 30.05 in 10.0 mi WNW 13.8 mph - N/A   Clear
10:55 PM 66.2 °F -0.4 °F 7% 30.05 in 10.0 mi West 12.7 mph - N/A   Clear
11:15 PM 64.4 °F -0.4 °F 7% 30.05 in 10.0 mi West 13.8 mph - N/A   Clear
11:35 PM 64.4 °F 1.4 °F 8% 30.05 in 10.0 mi West 13.8 mph - N/A   Clear
11:55 PM 64.4 °F 1.4 °F 8% 30.05 in 10.0 mi West 12.7 mph - N/A   Clear